{"data":{"norad_id":56290,"epoch":"2026-05-25T00:31:06.957984Z","epoch_age_seconds":73074,"freshness":"FRESH","line1":"1 56290U 23056E   26145.02160831  .00002955  00000+0  11691-3 0  9998","line2":"2 56290  43.0028 137.8643 0001254 271.1675  88.9033 15.27563518171715","mean_motion":15.27563518,"eccentricity":0.0001254,"inclination_deg":43.0028,"raan_deg":137.8643,"arg_perigee_deg":271.1675,"mean_anomaly_deg":88.9033,"bstar":0.00011691,"rev_number":17171,"period_min":94.267765826547,"perigee_km":482.23805059541,"apogee_km":483.95884844615,"semimajor_km":6861.2354495208,"source":"CELESTRAK","updated_at":"2026-05-25T13:38:17.964852Z"}}